FW1762 Weather Reports


time (UTC)temp
C
wind
direction
speed
KPH
gust
KPH
rain 1hr
cm
rain 24hr
cm
rain mn
cm
humidity
%
barometer
mb
20260507213042 11 169 0.0 0.0 0.00 0.00 0.00 82 1016.9
20260507212638 11 169 0.0 0.0 0.00 0.00 0.00 81 1016.9
20260507212218 11 170 0.0 0.0 0.00 0.00 0.00 81 1016.9
20260507211815 11 170 0.0 0.0 0.00 0.00 0.00 81 1016.9
20260507211039 11 170 0.0 0.0 0.00 0.00 0.00 81 1016.9
20260507210544 11 170 0.0 0.0 0.00 0.00 0.00 80 1016.9
20260507210037 11 170 0.0 0.0 0.00 0.00 0.00 80 1016.9
20260507205613 11 170 0.0 0.0 0.00 0.00 0.00 79 1016.9
20260507205140 11 171 0.0 0.0 0.00 0.00 0.00 79 1016.6
20260507204738 11 169 0.0 0.0 0.00 0.00 0.00 79 1016.6
20260507204315 11 169 0.0 0.0 0.00 0.00 0.00 78 1016.6
20260507203538 11 132 0.0 0.0 0.00 0.00 0.00 78 1016.6
20260507203038 11 132 0.0 0.0 0.00 0.00 0.00 78 1016.6
20260507202539 11 132 0.0 0.0 0.00 0.00 0.00 78 1016.6
20260507202112 12 148 0.0 0.0 0.00 0.00 0.00 77 1016.3
20260507201642 12 126 0.0 0.0 0.00 0.00 0.00 76 1016.3
20260507201236 12 125 0.0 0.0 0.00 0.00 0.00 76 1016.3
20260507200813 12 136 0.0 0.0 0.00 0.00 0.00 75 1016.3
20260507200042 12 213 0.0 0.0 0.00 0.00 0.00 75 1015.9
20260507195613 12 213 0.0 0.0 0.00 0.00 0.00 75 1015.9
20260507195140 12 213 0.0 0.0 0.00 0.00 0.00 74 1015.9
20260507194738 12 213 0.0 0.0 0.00 0.00 0.00 74 1015.9
20260507194310 12 213 0.0 0.0 0.00 0.00 0.00 74 1015.9
20260507193534 12 213 0.0 0.0 0.00 0.00 0.00 74 1015.9
20260507193040 12 213 0.0 0.0 0.00 0.00 0.00 74 1015.9
20260507192538 12 213 0.0 0.0 0.00 0.00 0.00 73 1015.6
20260507192042 12 213 0.0 0.0 0.00 0.00 0.00 73 1015.6
20260507191642 12 213 0.0 0.0 0.00 0.00 0.00 72 1015.6
20260507191215 12 213 0.0 0.0 0.00 0.00 0.00 71 1015.6
20260507190740 13 213 0.0 0.0 0.00 0.00 0.00 71 1015.6
20260507190312 13 213 0.0 0.0 0.00 0.00 0.00 71 1015.6
20260507185543 13 214 0.0 0.0 0.00 0.00 0.00 71 1015.6
20260507185040 13 177 0.0 0.0 0.00 0.00 0.00 70 1015.6
20260507184610 13 209 0.0 0.0 0.00 0.00 0.00 71 1015.6
20260507184141 13 195 0.0 0.0 0.00 0.00 0.00 70 1015.6
20260507183710 13 201 0.0 0.0 0.00 0.00 0.00 70 1015.6
20260507183241 13 193 0.0 0.0 0.00 0.00 0.00 70 1015.6
20260507182814 13 205 0.0 0.0 0.00 0.00 0.00 70 1015.6
20260507182042 13 188 0.0 0.0 0.00 0.00 0.00 70 1015.6
20260507181638 13 190 0.0 0.0 0.00 0.00 0.00 69 1015.6
20260507181211 13 174 0.0 0.0 0.00 0.00 0.00 69 1015.6
20260507180739 13 183 0.0 0.0 0.00 0.00 0.00 69 1015.6
20260507180312 13 200 0.0 0.0 0.00 0.00 0.00 68 1015.6
20260507175611 13 192 0.0 0.0 0.00 0.00 0.00 68 1015.2
20260507175144 13 178 0.0 0.0 0.00 0.00 0.00 68 1015.2
20260507174739 13 211 0.0 0.0 0.00 0.00 0.00 68 1015.2
20260507174314 14 185 0.0 0.0 0.00 0.00 0.00 68 1015.2
20260507173536 14 218 1.6 1.6 0.00 0.00 0.00 68 1015.2
20260507173040 14 162 1.6 1.6 0.00 0.00 0.00 67 1015.2
20260507172539 14 196 1.6 1.6 0.00 0.00 0.00 66 1015.2
20260507172125 14 198 0.0 0.0 0.00 0.00 0.00 65 1015.2
20260507171641 14 186 0.0 0.0 0.00 0.00 0.00 65 1015.2
20260507171225 15 119 0.0 0.0 0.00 0.00 0.00 65 1015.2
20260507170742 15 187 0.0 0.0 0.00 0.00 0.00 64 1015.2
20260507170327 15 108 0.0 0.0 0.00 0.00 0.00 63 1015.2
20260507165525 15 134 0.0 0.0 0.00 0.00 0.00 62 1015.2
20260507165023 15 196 0.0 0.0 0.00 0.00 0.00 61 1015.2
20260507164542 15 120 0.0 0.0 0.00 0.00 0.00 59 1015.2
20260507164125 15 132 0.0 0.0 0.00 0.00 0.00 59 1015.2
20260507163641 15 209 0.0 0.0 0.00 0.00 0.00 58 1015.2
20260507163225 15 213 0.0 1.6 0.00 0.00 0.00 58 1015.2
20260507162823 15 90 0.0 1.6 0.00 0.00 0.00 59 1015.2
20260507162039 15 200 0.0 1.6 0.00 0.00 0.00 58 1015.2
20260507161625 15 93 0.0 0.0 0.00 0.00 0.00 60 1015.2
20260507161142 15 207 0.0 0.0 0.00 0.00 0.00 60 1015.2
20260507160739 15 177 0.0 0.0 0.00 0.00 0.00 60 1015.2
20260507160322 15 44 0.0 0.0 0.00 0.00 0.00 59 1015.2
20260507155522 15 171 0.0 6.4 0.00 0.00 0.00 59 1015.2
20260507155021 15 227 0.0 0.0 0.00 0.00 0.00 58 1015.2
20260507154541 15 217 0.0 0.0 0.00 0.00 0.00 56 1015.2
20260507154037 16 197 0.0 0.0 0.00 0.00 0.00 55 1015.2
20260507153621 16 73 0.0 3.2 0.00 0.00 0.00 56 1015.2
20260507153144 16 207 0.0 3.2 0.00 0.00 0.00 54 1015.2
20260507152739 16 190 0.0 0.0 0.00 0.00 0.00 55 1015.2
20260507152322 16 209 0.0 0.0 0.00 0.00 0.00 53 1015.2
20260507151542 16 190 0.0 0.0 0.00 0.00 0.00 53 1015.6
20260507151137 16 177 0.0 0.0 0.00 0.00 0.00 52 1015.6
20260507150735 16 94 0.0 0.0 0.00 0.00 0.00 53 1015.6
20260507150320 15 152 0.0 0.0 0.00 0.00 0.00 51 1015.6
20260507145520 15 146 0.0 0.0 0.00 0.00 0.00 53 1015.6
20260507145041 16 157 0.0 0.0 0.00 0.00 0.00 50 1015.6
20260507144623 16 171 0.0 0.0 0.00 0.00 0.00 51 1015.6
20260507144144 16 217 0.0 0.0 0.00 0.00 0.00 50 1015.6
20260507143737 16 28 0.0 0.0 0.00 0.00 0.00 50 1015.6
20260507143320 16 138 0.0 0.0 0.00 0.00 0.00 51 1015.6
20260507142521 16 142 0.0 0.0 0.00 0.00 0.00 53 1015.6
20260507142020 16 184 0.0 0.0 0.00 0.00 0.00 52 1015.6
20260507141535 16 211 0.0 0.0 0.00 0.00 0.00 53 1015.6
20260507141043 16 118 0.0 0.0 0.00 0.00 0.00 52 1015.6
20260507140617 15 69 0.0 0.0 0.00 0.00 0.00 53 1015.6
20260507140140 15 174 0.0 0.0 0.00 0.00 0.00 52 1015.6
20260507135737 15 165 0.0 0.0 0.00 0.00 0.00 52 1015.6
20260507135316 15 217 0.0 0.0 0.00 0.00 0.00 51 1015.6
20260507134544 15 202 0.0 0.0 0.00 0.00 0.00 52 1015.6
20260507134042 15 165 0.0 0.0 0.00 0.00 0.00 54 1015.6
20260507133636 15 209 0.0 0.0 0.00 0.00 0.00 52 1015.6
20260507133219 15 202 0.0 0.0 0.00 0.00 0.00 51 1015.6
20260507132738 15 202 0.0 0.0 0.00 0.00 0.00 51 1015.9
20260507132316 15 203 0.0 0.0 0.00 0.00 0.00 51 1015.9
20260507131540 15 201 0.0 0.0 0.00 0.00 0.00 52 1015.9
20260507131041 15 202 0.0 0.0 0.00 0.00 0.00 51 1015.9
20260507130617 15 179 0.0 0.0 0.00 0.00 0.00 54 1015.9
20260507130136 15 221 0.0 0.0 0.00 0.00 0.00 52 1015.9
20260507125717 15 198 0.0 0.0 0.00 0.00 0.00 53 1015.9
20260507125240 15 120 0.0 0.0 0.00 0.00 0.00 54 1015.9
20260507124815 15 142 0.0 0.0 0.00 0.00 0.00 54 1015.9
20260507124035 15 121 0.0 0.0 0.00 0.00 0.00 54 1015.9
20260507123616 15 55 0.0 0.0 0.00 0.00 0.00 53 1015.9
20260507123141 15 103 0.0 0.0 0.00 0.00 0.00 53 1015.9
20260507122740 15 42 0.0 0.0 0.00 0.00 0.00 54 1015.9
20260507122313 15 30 0.0 0.0 0.00 0.00 0.00 54 1015.9
20260507121541 15 110 0.0 0.0 0.00 0.00 0.00 51 1015.9
20260507121039 15 101 0.0 0.0 0.00 0.00 0.00 52 1015.9
20260507120544 15 308 0.0 0.0 0.00 0.00 0.00 50 1015.9
20260507120139 15 340 0.0 0.0 0.00 0.00 0.00 52 1015.9
20260507115713 15 341 0.0 0.0 0.00 0.00 0.00 50 1015.9
20260507114644 15 310 0.0 0.0 0.00 0.00 0.00 50 1015.9
20260507114214 16 11 0.0 0.0 0.00 0.00 0.00 50 1015.9
20260507113811 16 36 0.0 0.0 0.00 0.00 0.00 48 1015.9
20260507113041 16 54 0.0 0.0 0.00 0.00 0.00 51 1015.9
20260507112637 16 106 0.0 0.0 0.00 0.00 0.00 50 1015.9
20260507112214 16 63 0.0 0.0 0.00 0.00 0.00 51 1015.9
20260507111813 15 104 0.0 0.0 0.00 0.00 0.00 54 1015.9
20260507111037 15 267 0.0 0.0 0.00 0.00 0.00 54 1016.3
20260507110542 14 169 0.0 0.0 0.00 0.00 0.00 56 1016.3
20260507110037 14 144 0.0 0.0 0.00 0.00 0.00 55 1016.3
20260507105612 14 88 0.0 0.0 0.00 0.00 0.00 59 1016.3
20260507105141 14 109 0.0 0.0 0.00 0.00 0.00 60 1016.3
20260507104738 14 153 0.0 0.0 0.00 0.00 0.00 57 1016.3
20260507104311 14 153 0.0 0.0 0.00 0.00 0.00 55 1016.3
20260507103542 14 138 0.0 0.0 0.00 0.00 0.00 57 1016.3
20260507103115 15 119 0.0 0.0 0.00 0.00 0.00 57 1016.3
20260507102643 15 186 0.0 0.0 0.00 0.00 0.00 57 1016.3
20260507102235 15 14 0.0 0.0 0.00 0.00 0.00 54 1016.3
20260507101811 15 55 0.0 0.0 0.00 0.00 0.00 55 1016.3
20260507101037 15 113 0.0 0.0 0.00 0.00 0.00 57 1016.3
20260507100614 14 75 0.0 0.0 0.00 0.00 0.00 59 1016.3
20260507100142 15 227 0.0 0.0 0.00 0.00 0.00 58 1016.3
20260507095711 15 250 0.0 0.0 0.00 0.00 0.00 58 1016.3
20260507095240 15 282 0.0 0.0 0.00 0.00 0.00 56 1016.3
20260507094814 15 284 0.0 0.0 0.00 0.00 0.00 54 1016.3
20260507094036 15 213 0.0 0.0 0.00 0.00 0.00 56 1016.3
20260507093537 15 173 0.0 0.0 0.00 0.00 0.00 57 1016.3
20260507093038 15 207 0.0 0.0 0.00 0.00 0.00 59 1016.3
20260507092540 14 262 0.0 0.0 0.00 0.00 0.00 59 1016.3
20260507092039 15 276 0.0 0.0 0.00 0.00 0.00 60 1016.3
20260507091638 14 236 0.0 0.0 0.00 0.00 0.00 65 1016.3
20260507091212 14 202 0.0 0.0 0.00 0.00 0.00 64 1016.3
20260507090739 13 200 0.0 0.0 0.00 0.00 0.00 65 1016.3
20260507090314 13 159 0.0 0.0 0.00 0.00 0.00 67 1016.3
20260507085538 13 89 0.0 0.0 0.00 0.00 0.00 73 1016.3
20260507085137 12 247 0.0 0.0 0.00 0.00 0.00 73 1016.3
20260507084735 12 157 0.0 0.0 0.00 0.00 0.00 73 1016.3
20260507084316 12 98 0.0 0.0 0.00 0.00 0.00 74 1016.3
20260507083540 12 198 0.0 0.0 0.00 0.00 0.00 76 1016.6
20260507083042 12 229 0.0 0.0 0.00 0.00 0.00 76 1016.3
20260507082537 12 140 0.0 0.0 0.00 0.00 0.00 78 1016.3
20260507082114 12 155 0.0 0.0 0.00 0.00 0.00 81 1016.3
20260507081641 11 88 0.0 0.0 0.00 0.00 0.00 82 1016.6
20260507081236 11 114 0.0 0.0 0.00 0.00 0.00 83 1016.3
20260507080812 11 142 0.0 0.0 0.00 0.00 0.00 83 1016.6
20260507080039 11 214 0.0 0.0 0.00 0.00 0.00 83 1016.6
20260507075540 11 290 0.0 0.0 0.00 0.00 0.00 84 1016.6
20260507075136 11 150 0.0 0.0 0.00 0.00 0.00 84 1016.6
20260507074714 10 78 0.0 0.0 0.00 0.00 0.00 86 1016.3
20260507074239 10 155 0.0 0.0 0.00 0.00 0.00 87 1016.3
20260507073812 10 36 0.0 0.0 0.00 0.00 0.00 87 1016.3
20260507073043 10 121 0.0 0.0 0.00 0.00 0.00 88 1016.3
20260507072540 9 122 0.0 1.6 0.00 0.00 0.00 89 1016.3
20260507072113 9 52 0.0 0.0 0.00 0.00 0.00 90 1016.3
20260507071642 8 55 0.0 0.0 0.00 0.00 0.00 90 1016.6
20260507071239 8 128 0.0 0.0 0.00 0.00 0.00 90 1016.6
20260507070814 8 123 0.0 0.0 0.00 0.00 0.00 91 1016.6
20260507070039 8 140 0.0 0.0 0.00 0.00 0.00 93 1016.6
20260507065538 7 141 0.0 0.0 0.00 0.00 0.00 93 1016.6
20260507065113 7 141 0.0 0.0 0.00 0.00 0.00 93 1016.6
20260507064637 7 141 0.0 0.0 0.00 0.00 0.00 93 1016.6
20260507064212 6 141 0.0 0.0 0.00 0.00 0.00 93 1016.6
20260507063813 6 141 0.0 0.0 0.00 0.00 0.00 93 1016.6
20260507063040 6 139 0.0 0.0 0.00 0.00 0.00 93 1016.6
20260507062542 6 139 0.0 0.0 0.00 0.00 0.00 93 1016.6
20260507062113 5 139 0.0 0.0 0.00 0.00 0.00 93 1016.6
20260507061711 5 139 0.0 0.0 0.00 0.00 0.00 93 1016.3
20260507061310 5 139 0.0 0.0 0.00 0.00 0.00 93 1016.3
20260507060539 5 139 0.0 0.0 0.00 0.00 0.00 93 1016.3
20260507060037 5 139 0.0 0.0 0.00 0.00 0.00 93 1016.3
20260507055614 5 139 0.0 0.0 0.00 0.00 0.00 93 1016.3
20260507055139 5 139 0.0 0.0 0.00 0.00 0.00 93 1016.3
20260507054711 4 139 0.0 0.0 0.00 0.00 0.00 93 1016.3
20260507054241 4 139 0.0 0.0 0.00 0.00 0.00 93 1016.3
20260507053811 4 139 0.0 0.0 0.00 0.00 0.00 92 1016.3
20260507053042 4 139 0.0 0.0 0.00 0.00 0.00 92 1015.9
20260507052542 4 139 0.0 0.0 0.00 0.00 0.00 92 1015.9
20260507052041 4 139 0.0 0.0 0.00 0.00 0.00 92 1015.9
20260507051540 4 139 0.0 0.0 0.00 0.00 0.00 92 1015.9
20260507051115 4 139 0.0 0.0 0.00 0.00 0.00 92 1015.9
20260507050711 4 139 0.0 0.0 0.00 0.00 0.00 92 1015.9
20260507050241 4 139 0.0 0.0 0.00 0.00 0.00 92 1015.9
20260507045812 4 139 0.0 0.0 0.00 0.00 0.00 92 1015.9
20260507045032 4 139 0.0 0.0 0.00 0.00 0.00 92 1015.9
20260507044529 4 139 0.0 0.0 0.00 0.00 0.00 92 1015.9
20260507044030 4 139 0.0 0.0 0.00 0.00 0.00 92 1015.9
20260507043533 4 125 0.0 0.0 0.00 0.00 0.00 92 1015.9
20260507043030 4 118 0.0 0.0 0.00 0.00 0.00 92 1015.9
20260507042529 4 112 0.0 0.0 0.00 0.00 0.00 92 1015.9
20260507042029 4 112 0.0 0.0 0.00 0.00 0.00 92 1015.9
20260507041532 5 112 0.0 0.0 0.00 0.00 0.00 92 1015.9
20260507041029 5 112 0.0 0.0 0.00 0.00 0.00 92 1015.9
20260507040527 5 112 0.0 0.0 0.00 0.00 0.00 92 1015.9
20260507040031 5 112 0.0 0.0 0.00 0.00 0.00 92 1015.9
20260507035528 5 112 0.0 0.0 0.00 0.00 0.00 92 1015.9
20260507035028 5 112 0.0 0.0 0.00 0.00 0.00 92 1015.9
20260507034539 5 112 0.0 0.0 0.00 0.00 0.00 92 1015.9
20260507034128 5 112 0.0 0.0 0.00 0.00 0.00 92 1015.9
20260507033639 5 112 0.0 0.0 0.00 0.00 0.00 92 1015.9
20260507033227 5 112 0.0 0.0 0.00 0.00 0.00 92 1015.9
20260507032742 5 112 0.0 0.0 0.00 0.00 0.00 92 1015.9
20260507032327 5 112 0.0 0.0 0.00 0.00 0.00 92 1015.9
20260507031527 5 112 0.0 0.0 0.00 0.00 0.00 92 1015.9
20260507031041 5 112 0.0 0.0 0.00 0.00 0.00 92 1015.9
20260507030626 5 112 0.0 0.0 0.00 0.00 0.00 92 1015.6
20260507030141 5 112 0.0 0.0 0.00 0.00 0.00 92 1015.6
20260507025739 5 112 0.0 0.0 0.00 0.00 0.00 91 1015.6
20260507025325 5 112 0.0 0.0 0.00 0.00 0.00 91 1015.6
20260507024526 5 112 0.0 0.0 0.00 0.00 0.00 91 1015.6
20260507024025 5 112 0.0 0.0 0.00 0.00 0.00 91 1015.6
20260507023527 6 112 0.0 0.0 0.00 0.00 0.00 91 1015.6
20260507023026 6 112 0.0 0.0 0.00 0.00 0.00 91 1015.6
20260507022526 6 112 0.0 0.0 0.00 0.00 0.00 91 1015.6
20260507022025 6 112 0.0 0.0 0.00 0.00 0.00 90 1015.6
20260507021526 6 112 0.0 0.0 0.00 0.00 0.00 90 1015.6
20260507021027 6 112 0.0 0.0 0.00 0.00 0.00 90 1015.6
20260507020524 6 112 0.0 0.0 0.00 0.00 0.00 90 1015.6
20260507020028 6 112 0.0 0.0 0.00 0.00 0.00 90 1015.6
20260507015524 6 112 0.0 0.0 0.00 0.00 0.00 90 1015.6
20260507015023 6 112 0.0 0.0 0.00 0.00 0.00 90 1015.6
20260507014537 6 112 0.0 0.0 0.00 0.00 0.00 90 1015.6
20260507014123 6 112 0.0 0.0 0.00 0.00 0.00 90 1015.6
20260507013639 6 112 0.0 0.0 0.00 0.00 0.00 89 1015.6
20260507013223 6 112 0.0 0.0 0.00 0.00 0.00 89 1015.6
20260507012741 6 112 0.0 0.0 0.00 0.00 0.00 89 1015.6
20260507012322 6 112 0.0 0.0 0.00 0.00 0.00 89 1015.2
20260507011523 7 112 0.0 0.0 0.00 0.00 0.00 89 1015.6
20260507011023 7 112 0.0 0.0 0.00 0.00 0.00 89 1015.2
20260507010522 7 112 0.0 0.0 0.00 0.00 0.00 88 1015.6
20260507010029 7 112 0.0 0.0 0.00 0.00 0.00 88 1015.2
20260507005539 7 112 0.0 0.0 0.00 0.00 0.00 88 1015.2
20260507005135 7 112 0.0 0.0 0.00 0.00 0.00 87 1015.6
20260507004722 7 112 0.0 0.0 0.00 0.00 0.00 87 1015.6
20260507004241 7 112 0.0 0.0 0.00 0.00 0.00 87 1015.2
20260507003823 7 112 0.0 0.0 0.00 0.00 0.00 86 1015.6
20260507003021 7 112 0.0 0.0 0.00 0.00 0.00 86 1015.6
20260507002541 7 112 0.0 0.0 0.00 0.00 0.00 86 1015.6
20260507002135 7 112 0.0 0.0 0.00 0.00 0.00 86 1015.6
20260507001720 7 112 0.0 0.0 0.00 0.00 0.00 85 1015.6
20260507001319 7 112 0.0 0.0 0.00 0.00 0.00 85 1015.6
20260507000542 7 112 0.0 0.0 0.00 0.00 0.00 85 1015.6
20260507000138 7 112 0.0 0.0 0.00 0.00 0.00 84 1015.6
20260506235736 8 112 0.0 0.0 0.00 0.00 0.00 83 1015.6
20260506235321 8 112 0.0 0.0 0.00 0.00 0.00 83 1015.6
20260506234539 8 112 0.0 0.0 0.00 0.00 0.00 83 1015.2
20260506234038 8 112 0.0 0.0 0.00 0.00 0.00 82 1015.2
20260506233618 8 112 0.0 0.0 0.00 0.00 0.00 82 1015.2
20260506233145 8 112 0.0 0.0 0.00 0.00 0.00 81 1015.2
20260506232719 8 112 0.0 0.0 0.00 0.00 0.00 81 1015.2
20260506232238 9 112 0.0 0.0 0.00 0.00 0.00 80 1015.2
20260506231818 9 112 0.0 0.0 0.00 0.00 0.00 79 1015.2
20260506231018 9 112 0.0 0.0 0.00 0.00 0.00 79 1015.2
20260506230519 9 112 0.0 0.0 0.00 0.00 0.00 78 1015.2
20260506230019 10 112 0.0 0.0 0.00 0.00 0.00 78 1015.2
20260506225535 10 112 0.0 0.0 0.00 0.00 0.00 78 1015.2
20260506225119 10 112 0.0 0.0 0.00 0.00 0.00 77 1015.2
20260506224641 10 112 0.0 0.0 0.00 0.00 0.00 77 1015.2
20260506224239 10 112 0.0 0.0 0.00 0.00 0.00 76 1015.2
20260506223817 10 112 0.0 0.0 0.00 0.00 0.00 76 1015.2
20260506223039 10 112 0.0 0.0 0.00 0.00 0.00 76 1015.2
20260506222617 10 113 0.0 0.0 0.00 0.00 0.00 76 1015.2
20260506222141 10 113 0.0 0.0 0.00 0.00 0.00 76 1015.2
20260506221739 10 329 0.0 0.0 0.00 0.00 0.00 75 1015.2
20260506221315 10 50 0.0 0.0 0.00 0.00 0.00 75 1014.9
20260506220536 11 37 0.0 0.0 0.00 0.00 0.00 75 1014.9
20260506220043 11 24 0.0 0.0 0.00 0.00 0.00 75 1014.9
20260506215637 11 265 0.0 0.0 0.00 0.00 0.00 75 1014.9
20260506215216 11 92 0.0 0.0 0.00 0.00 0.00 74 1014.9
20260506214738 11 296 0.0 0.0 0.00 0.00 0.00 74 1014.9
20260506214315 11 307 0.0 0.0 0.00 0.00 0.00 74 1015.2